#timestamp,LO_Frequency,Hit,StdDev 
1635649215.2,286046995.2,P
1635649235.0,286046995.7,Y
1635649235.9,286046995.7,P
1635649255.8,286046998.3,P
1635649275.6,286047001.1,N
1635649295.4,286047002.8,N
1635649315.3,286047000.3,N
1635649335.1,286047000.6,N
1635649355.8,286046999.9,N
1635649375.7,286047000.9,N
1635649395.5,286047001.2,N
1635649415.4,286046998.6,N
1635649435.2,286047001.2,N
1635649455.0,286046998.3,N
1635649455.9,286046998.3,N
1635649475.8,286046999.5,N
1635649495.6,286046999.6,N
1635649515.5,286046999.2,N
1635649535.3,286046999.1,N
1635649555.1,286046999.6,N
1635649575.9,286046999.3,N
1635649595.7,286046999.5,N
1635649615.6,286046999.5,N
1635649635.4,286046996.6,N
1635649655.2,286046997.1,N
1635649675.1,286046996.8,N
1635649676.0,286046996.8,N
1635649695.8,286046996.9,N
1635649715.6,286046995.3,N
1635649735.5,286046997.5,N
1635649755.3,286046997.6,N
1635649775.2,286046997.5,N
1635649795.9,286046997.7,N
1635649815.7,286046996.7,N
1635649835.6,286046997.0,N
1635649855.4,286046996.9,N
1635649875.2,286046998.7,N
1635649895.1,286047000.7,N
1635649896.0,286047000.7,N
1635649915.8,286046998.5,N
1635649935.7,286046998.6,N
1635649955.5,286046999.0,N
1635649975.3,286046999.0,N
1635649995.2,286046997.4,N
1635650015.0,286046996.7,N
1635650015.9,286046996.7,N
1635650035.8,286046998.0,N
1635650055.6,286046995.3,Y
1635650075.4,286046999.1,P
1635650095.3,286046999.5,N
1635650115.1,286046998.1,P
1635650135.8,286047001.2,N
1635650155.7,286046998.8,N
1635650175.5,286046998.1,N
1635650195.3,286046998.7,N
1635650215.2,286046998.4,N
1635650235.0,286046998.1,N
1635650235.9,286046998.1,N
1635650255.8,286046998.5,N
1635650275.6,286046998.8,N
1635650295.4,286046998.1,N
1635650315.3,286047000.9,N
1635650335.1,286047000.8,N
1635650355.8,286046998.6,N
1635650375.7,286046998.3,N
1635650395.5,286046998.6,N
1635650415.4,286046999.4,N
1635650435.2,286046998.5,N
1635650455.0,286046998.5,N
1635650455.9,286046998.5,N
1635650475.8,286046999.4,N
1635650495.6,286046996.6,Y
1635650515.5,286046999.1,P
1635650535.3,286046998.6,P
1635650555.1,286046998.1,P
1635650575.9,286046999.9,N
1635650595.7,286047000.4,N
1635650615.5,286046998.1,N
1635650635.4,286046998.5,N
1635650655.2,286047000.0,N
1635650675.1,286047000.7,N
1635650676.0,286047000.7,N
1635650695.8,286046998.2,N
1635650715.6,286046998.6,N
1635650735.5,286046996.7,Y
1635650755.3,286046999.1,P
1635650775.2,286046999.0,P
1635650795.9,286046999.1,P
1635650815.7,286046998.6,Y
1635650835.6,286047000.0,P
1635650855.4,286047000.1,N
1635650875.2,286047000.5,N
1635650895.1,286047000.7,N
1635650896.0,286047000.7,N
1635650915.8,286046999.7,N
1635650935.7,286046998.9,N
1635650955.5,286046998.6,N
1635650975.3,286047002.4,Y
1635650995.2,286047000.0,P
1635651015.0,286047002.8,P
1635651015.9,286047002.8,N
1635651035.7,286047002.5,N
1635651055.6,286047000.2,N
1635651075.4,286046999.7,N
1635651095.3,286047000.2,N
1635651115.1,286047001.6,N
1635651135.8,286047004.3,Y
1635651155.7,286047002.1,P
1635651175.5,286047000.3,N
1635651195.4,286047000.9,N
1635651215.2,286047000.3,N
1635651235.0,286046999.7,N
1635651235.9,286046999.7,N
1635651255.8,286046999.7,N
1635651275.6,286047000.7,N
1635651295.4,286047000.1,N
1635651315.3,286047002.7,Y
1635651335.1,286046999.8,P
1635651355.9,286047000.2,N
1635651375.7,286047002.8,P
1635651395.5,286047002.5,N
1635651415.4,286047002.4,N
1635651435.2,286047001.3,N
1635651455.0,286047003.6,Y
1635651456.0,286047003.6,P
1635651475.8,286047004.0,P
1635651495.6,286047004.4,P
1635651515.5,286047004.1,Y
1635651535.3,286047000.5,P
1635651555.1,286047001.0,N
1635651575.9,286046998.5,N
1635651595.7,286046999.5,N
1635651615.6,286046997.2,N
1635651635.4,286046997.9,N
1635651655.2,286046997.4,N
1635651675.1,286046997.4,N
1635651676.0,286046997.4,N
1635651695.8,286046997.3,N
1635651715.6,286046996.6,N
1635651735.5,286046998.9,N
1635651755.3,286046996.9,N
1635651775.2,286046996.6,N
1635651795.9,286046999.4,N
1635651815.7,286046998.3,N
1635651835.6,286046998.2,N
1635651855.4,286046999.9,N
1635651875.2,286047000.0,N
1635651895.1,286046998.2,N
1635651896.0,286046998.2,N
1635651915.8,286046998.7,N
1635651935.7,286046998.5,N
1635651955.5,286046998.5,N
1635651975.3,286046998.1,N
1635651995.2,286047001.1,N
1635652015.0,286046998.4,N
1635652015.9,286046998.4,N
1635652035.7,286047001.0,N
1635652055.6,286047000.9,N
1635652075.4,286047000.3,N
1635652095.3,286046998.5,N
1635652115.1,286046999.7,N
1635652135.9,286047000.2,N
1635652155.7,286047001.2,N
1635652175.5,286047000.0,N
1635652195.4,286047000.6,N
1635652215.2,286047000.9,N
1635652235.1,286046998.6,N
1635652236.0,286046998.6,N
1635652255.8,286046998.9,N
1635652275.6,286047001.1,N
1635652295.5,286046998.8,N
1635652315.3,286046998.4,N
1635652335.1,286046998.7,N
1635652355.9,286046998.7,N
1635652375.7,286047000.9,N
1635652395.6,286047002.1,N
1635652415.4,286046999.7,N
1635652435.2,286047002.6,N
1635652455.1,286047001.6,N
1635652456.0,286047001.6,N
1635652475.8,286046999.7,N
1635652495.6,286047000.1,N
1635652515.5,286047002.6,N
1635652535.3,286047002.3,N
1635652555.2,286047002.5,N
1635652575.0,286047002.4,N
1635652575.9,286047002.4,N
1635652595.8,286047002.0,N
1635652615.6,286047002.0,N
1635652635.4,286047000.1,N
1635652655.3,286046999.8,N
1635652675.1,286047000.2,N
1635652695.8,286047001.6,N
1635652715.7,286047002.6,N
1635652735.5,286047002.7,N
1635652755.3,286047002.5,N
1635652775.2,286047002.1,N
1635652795.0,286047002.7,N
1635652795.9,286047002.7,N
